GW2569 Weather Reports


Display with metric or nautical units.
time (UTC)temp
F
wind
direction
speed
MPH
gust
MPH
rain 1hr
in
rain 24hr
in
rain mn
in
humidity
%
barometer
mb
20260906012540 85 200 6.0 25.0 0.00 0.83 0.04 82 1011.7
20260906012042 87 144 5.0 11.0 0.00 0.83 0.04 87 1011.7
20260906011603 87 355 1.0 7.0 0.00 0.83 0.04 88 1010.8
20260906011040 87 0 2.0 9.0 0.00 0.83 0.04 88 1010.6
20260906010539 87 5 3.0 12.0 0.00 0.83 0.04 88 1010.5
20260906010105 88 290 3.0 12.0 0.00 0.83 0.04 87 1010.0
20260906005540 88 340 3.0 12.0 0.00 0.83 0.04 87 1010.2
20260906005040 88 5 5.0 12.0 0.00 0.83 0.04 87 1010.1
20260906004612 88 11 3.0 10.0 0.00 0.83 0.04 87 1010.2
20260906004041 88 0 3.0 11.0 0.00 0.83 0.04 86 1010.1
20260906003540 88 24 2.0 11.0 0.00 0.83 0.04 86 1010.2
20260906003114 88 341 4.0 11.0 0.00 0.83 0.04 86 1010.0
20260906002540 89 0 4.0 11.0 0.00 0.83 0.04 85 1009.9
20260906002040 89 317 3.0 11.0 0.00 0.83 0.04 85 1009.9
20260906001556 89 322 3.0 10.0 0.00 0.83 0.04 85 1009.9
20260906001039 89 0 3.0 13.0 0.00 0.83 0.04 85 1010.0
20260906000541 89 316 6.0 13.0 0.00 0.83 0.04 84 1009.9
20260906000105 90 319 4.0 9.0 0.00 0.83 0.04 84 1009.9
20260905235542 90 317 2.0 12.0 0.00 0.83 0.04 84 1009.8
20260905235040 90 352 4.0 13.0 0.00 0.83 0.04 84 1009.6
20260905234611 90 315 8.0 13.0 0.00 0.83 0.04 83 1009.4
20260905234039 90 306 8.0 13.0 0.00 0.83 0.04 82 1009.5
20260905233539 91 360 6.0 12.0 0.00 0.83 0.04 82 1009.6
20260905233057 91 5 7.0 13.0 0.00 0.83 0.04 81 1009.5
20260905232539 92 304 8.0 13.0 0.00 0.83 0.04 81 1009.4
20260905232039 93 313 7.0 13.0 0.00 0.83 0.04 80 1009.4
20260905231557 93 329 4.0 11.0 0.00 0.83 0.04 79 1009.4
20260905231039 94 316 2.0 11.0 0.00 0.83 0.04 78 1009.5
20260905230540 96 272 3.0 11.0 0.00 0.83 0.04 74 1009.6
20260905230110 96 5 7.0 11.0 0.00 0.83 0.04 70 1009.5
20260905225538 96 101 4.0 11.0 0.00 0.83 0.04 69 1009.5
20260905225038 96 44 4.0 11.0 0.00 0.83 0.04 70 1009.4
20260905224613 96 57 4.0 12.0 0.00 0.83 0.04 70 1009.4
20260905224040 96 70 5.0 12.0 0.00 0.83 0.04 69 1009.2
20260905223539 96 83 5.0 11.0 0.00 0.83 0.04 70 1009.3
20260905223058 96 63 5.0 12.0 0.00 0.83 0.04 70 1009.3
20260905222540 96 103 6.0 13.0 0.00 0.83 0.04 69 1009.3
20260905222039 96 71 7.0 13.0 0.00 0.83 0.04 69 1009.3
20260905221611 96 47 5.0 13.0 0.00 0.83 0.04 70 1009.2
20260905221040 97 94 4.0 10.0 0.00 0.83 0.04 70 1009.2
20260905220538 96 85 6.0 14.0 0.00 0.83 0.04 70 1009.3
20260905220106 96 94 6.0 14.0 0.00 0.83 0.04 71 1009.4
20260905215539 96 40 6.0 13.0 0.00 0.83 0.04 71 1009.4
20260905215039 96 107 3.0 13.0 0.00 0.83 0.04 72 1009.3
20260905214602 96 95 8.0 13.0 0.00 0.83 0.04 73 1009.4
20260905214040 96 96 5.0 11.0 0.00 0.83 0.04 72 1009.4
20260905213540 96 88 5.0 11.0 0.00 0.83 0.04 72 1009.5
20260905213103 96 62 6.0 12.0 0.00 0.83 0.04 72 1009.6
20260905212540 96 105 6.0 13.0 0.00 0.83 0.04 72 1009.6
20260905212039 96 117 7.0 14.0 0.00 0.83 0.04 73 1009.7
20260905211602 95 74 6.0 14.0 0.00 0.83 0.04 73 1009.7
20260905211040 96 87 6.0 14.0 0.00 0.83 0.04 74 1009.7
20260905210540 96 93 6.0 13.0 0.00 0.83 0.04 73 1009.8
20260905210058 96 63 6.0 13.0 0.00 0.83 0.04 73 1009.8
20260905205538 95 83 4.0 13.0 0.00 0.83 0.04 75 1009.9
20260905205040 95 109 4.0 13.0 0.00 0.83 0.04 75 1010.0
20260905204554 96 131 4.0 13.0 0.00 0.83 0.04 74 1010.0
20260905204040 96 109 2.0 13.0 0.00 0.83 0.04 74 1010.0
20260905203540 95 55 2.0 13.0 0.00 0.83 0.04 73 1010.1
20260905203104 95 144 5.0 11.0 0.00 0.83 0.04 73 1010.2
20260905202538 95 126 5.0 11.0 0.00 0.83 0.04 74 1010.3
20260905202038 94 121 6.0 11.0 0.00 0.83 0.04 74 1010.3
20260905201618 95 119 2.0 12.0 0.00 0.83 0.04 75 1010.4
20260905201038 94 65 4.0 12.0 0.00 0.83 0.04 75 1010.4
20260905200540 95 124 4.0 12.0 0.00 0.83 0.04 74 1010.5
20260905200057 95 0 2.0 12.0 0.00 0.83 0.04 74 1010.6
20260905195539 95 55 6.0 10.0 0.00 0.83 0.04 74 1010.6
20260905195040 95 55 3.0 13.0 0.00 0.83 0.04 75 1010.7
20260905194559 94 18 5.0 13.0 0.00 0.83 0.04 75 1010.8
20260905194042 94 111 5.0 10.0 0.00 0.83 0.04 74 1010.9
20260905193540 94 127 5.0 10.0 0.00 0.83 0.04 75 1011.0
20260905193111 93 73 2.0 10.0 0.00 0.83 0.04 76 1011.3
20260905192539 93 82 4.0 11.0 0.00 0.83 0.04 76 1011.5
20260905192042 94 111 3.0 11.0 0.00 0.83 0.04 75 1011.4
20260905191602 93 100 4.0 11.0 0.00 0.83 0.04 75 1011.4
20260905191039 92 83 4.0 11.0 0.00 0.83 0.04 76 1011.5
20260905190541 92 96 4.0 13.0 0.00 0.83 0.04 76 1011.5
20260905190054 92 114 6.0 13.0 0.00 0.83 0.04 77 1011.7
20260905185540 92 9 5.0 10.0 0.00 0.83 0.04 77 1011.7
20260905185040 92 116 3.0 12.0 0.00 0.83 0.04 77 1011.8
20260905184605 91 76 6.0 12.0 0.00 0.83 0.04 78 1012.0
20260905184039 92 156 1.0 9.0 0.00 0.83 0.04 78 1012.0
20260905183538 92 66 3.0 9.0 0.00 0.83 0.04 77 1012.0
20260905183058 92 68 3.0 9.0 0.00 0.83 0.04 79 1012.0
20260905182540 91 127 1.0 9.0 0.00 0.83 0.04 79 1012.1
20260905182040 90 174 4.0 10.0 0.00 0.83 0.04 79 1012.2
20260905181610 90 97 5.0 10.0 0.00 0.83 0.04 79 1012.2
20260905181039 91 119 3.0 9.0 0.00 0.83 0.04 78 1012.3
20260905180540 90 40 4.0 9.0 0.00 0.83 0.04 79 1012.5
20260905180056 89 184 3.0 8.0 0.00 0.83 0.04 81 1012.5
20260905175540 90 160 3.0 8.0 0.00 0.83 0.04 79 1012.7
20260905175040 90 137 3.0 8.0 0.00 0.83 0.04 80 1012.9
20260905174605 89 112 3.0 8.0 0.00 0.83 0.04 80 1013.0
20260905174039 89 90 2.0 10.0 0.00 0.83 0.04 81 1013.1
20260905173539 89 120 5.0 10.0 0.00 0.83 0.04 81 1013.1
20260905173100 89 71 5.0 10.0 0.00 0.83 0.04 81 1013.2
20260905172539 89 105 2.0 9.0 0.00 0.83 0.04 80 1013.2
20260905172040 89 166 2.0 8.0 0.00 0.83 0.04 81 1013.3
20260905171556 88 102 3.0 7.0 0.00 0.83 0.04 82 1013.3
20260905171041 87 0 1.0 6.0 0.00 0.83 0.04 84 1013.3
20260905170539 85 116 3.0 7.0 0.00 0.83 0.04 84 1013.3
20260905170054 85 0 1.0 7.0 0.00 0.83 0.04 85 1013.4
20260905165539 85 0 3.0 7.0 0.00 0.83 0.04 85 1013.4
20260905165039 84 160 3.0 7.0 0.00 0.83 0.04 86 1013.6
20260905164610 85 131 3.0 6.0 0.00 0.83 0.04 85 1013.7
20260905164037 84 229 2.0 6.0 0.00 0.83 0.04 86 1013.8
20260905163538 85 0 1.0 7.0 0.00 0.83 0.04 84 1013.8
20260905163057 86 175 1.0 7.0 0.00 0.83 0.04 84 1013.7
20260905162542 85 0 2.0 6.0 0.00 0.83 0.04 84 1013.6
20260905162045 86 0 0.0 7.0 0.00 0.83 0.04 84 1013.7
20260905161606 85 85 2.0 7.0 0.00 0.83 0.04 85 1013.7
20260905161040 85 59 1.0 4.0 0.00 0.83 0.04 86 1013.7
20260905160539 83 46 0.0 3.0 0.00 0.83 0.04 88 1013.7
20260905160101 83 343 0.0 3.0 0.00 0.83 0.04 88 1013.6
20260905155539 83 0 0.0 3.0 0.00 0.83 0.04 89 1013.8
20260905155039 82 0 1.0 3.0 0.00 0.83 0.04 89 1013.8
20260905154616 82 252 1.0 4.0 0.00 0.83 0.04 89 1013.9
20260905154041 82 261 1.0 4.0 0.00 0.83 0.04 90 1013.9
20260905153539 81 297 2.0 4.0 0.00 0.83 0.04 90 1014.0
20260905153102 82 290 2.0 4.0 0.00 0.83 0.04 90 1014.1
20260905152537 82 317 0.0 4.0 0.00 0.83 0.04 90 1014.1
20260905152039 82 11 1.0 4.0 0.00 0.83 0.04 90 1014.0
20260905151605 82 0 1.0 4.0 0.00 0.83 0.04 90 1014.1
20260905151040 81 0 0.0 3.0 0.00 0.83 0.04 92 1014.0
20260905150539 80 0 0.0 3.0 0.00 0.83 0.04 93 1014.0
20260905150106 80 95 1.0 3.0 0.00 0.83 0.04 93 1014.0
20260905145539 79 0 0.0 4.0 0.00 0.83 0.04 94 1014.1
20260905145037 79 144 1.0 5.0 0.00 0.83 0.04 94 1014.0
20260905144603 79 171 0.0 5.0 0.00 0.83 0.04 95 1014.0
20260905144037 79 0 0.0 4.0 0.00 0.83 0.04 94 1014.0
20260905143539 78 0 1.0 4.0 0.00 0.83 0.04 94 1014.0
20260905143106 78 0 0.0 3.0 0.00 0.83 0.04 94 1013.9
20260905142540 78 0 0.0 3.0 0.00 0.83 0.04 95 1013.9
20260905142043 78 0 0.0 4.0 0.00 0.83 0.04 95 1013.9
20260905141606 78 0 1.0 4.0 0.00 0.83 0.04 95 1013.8
20260905141037 78 300 1.0 4.0 0.00 0.83 0.04 95 1013.8
20260905140538 78 302 1.0 4.0 0.00 0.83 0.04 95 1013.7
20260905140105 78 321 0.0 4.0 0.00 0.83 0.04 95 1013.8
20260905135539 78 345 2.0 5.0 0.00 0.83 0.04 95 1013.8
20260905135039 78 273 2.0 5.0 0.00 0.83 0.04 95 1013.8
20260905134607 78 257 3.0 5.0 0.00 0.83 0.04 95 1013.7
20260905134040 78 323 3.0 6.0 0.00 0.83 0.04 95 1013.7
20260905133540 78 299 2.0 6.0 0.00 0.83 0.04 95 1013.8
20260905133101 78 293 2.0 6.0 0.00 0.83 0.04 94 1013.9
20260905132538 78 342 3.0 7.0 0.00 0.83 0.04 94 1013.8
20260905132040 78 298 3.0 7.0 0.00 0.83 0.04 94 1013.8
20260905131609 79 289 1.0 5.0 0.00 0.83 0.04 93 1013.7
20260905131040 79 331 2.0 7.0 0.00 0.83 0.04 93 1013.7
20260905130545 79 285 3.0 7.0 0.00 0.83 0.04 93 1013.6
20260905130058 79 267 2.0 8.0 0.00 0.83 0.04 92 1013.6
20260905125537 79 250 3.0 8.0 0.00 0.83 0.04 92 1013.4
20260905125040 78 295 3.0 8.0 0.00 0.83 0.04 92 1013.3
20260905124601 78 294 3.0 6.0 0.00 0.83 0.04 92 1013.3
20260905124036 78 300 2.0 5.0 0.00 0.83 0.04 92 1013.3
20260905123540 78 289 1.0 5.0 0.00 0.83 0.04 92 1013.2
20260905123105 78 282 0.0 2.0 0.00 0.83 0.04 93 1013.2
20260905122540 78 0 0.0 3.0 0.00 0.83 0.04 93 1013.0
20260905122042 78 0 0.0 4.0 0.00 0.83 0.04 93 1013.0
20260905121559 78 286 1.0 4.0 0.00 0.83 0.04 93 1012.9
20260905121037 78 0 0.0 3.0 0.00 0.83 0.04 93 1012.8
20260905120540 78 323 1.0 3.0 0.00 0.83 0.04 93 1012.7
20260905120107 78 0 0.0 7.0 0.00 0.83 0.04 93 1012.6
20260905115539 78 0 1.0 7.0 0.00 0.83 0.04 93 1012.5
20260905115039 78 251 3.0 7.0 0.00 0.83 0.04 93 1012.6
20260905114601 78 0 0.0 2.0 0.00 0.83 0.04 93 1012.7
20260905114040 78 0 0.0 2.0 0.00 0.83 0.04 93 1012.5
20260905113537 78 0 1.0 2.0 0.00 0.83 0.04 93 1012.5
20260905113104 78 0 0.0 4.0 0.00 0.83 0.04 92 1012.5
20260905112540 78 98 0.0 4.0 0.00 0.83 0.04 93 1012.3
20260905112039 78 98 2.0 4.0 0.00 0.83 0.04 93 1012.3
20260905111610 78 90 1.0 3.0 0.00 0.83 0.04 93 1012.3
20260905111038 78 98 0.0 3.0 0.00 0.83 0.04 93 1012.3
20260905110539 78 98 0.0 2.0 0.00 0.83 0.04 93 1012.3
20260905110104 78 0 0.0 0.0 0.00 0.83 0.04 93 1012.3
20260905105537 78 0 0.0 4.0 0.00 0.83 0.04 93 1012.2
20260905105038 78 0 0.0 4.0 0.00 0.83 0.04 93 1012.1
20260905104616 78 0 1.0 4.0 0.00 0.83 0.04 93 1012.0
20260905104045 78 0 1.0 5.0 0.00 0.83 0.04 93 1012.1
20260905103542 78 65 0.0 7.0 0.00 0.83 0.04 93 1011.9
20260905103105 78 64 2.0 7.0 0.00 0.83 0.04 93 1011.9
20260905102540 79 74 1.0 6.0 0.00 0.83 0.04 93 1011.8
20260905102041 79 55 3.0 6.0 0.00 0.83 0.04 92 1011.8
20260905101604 78 63 1.0 3.0 0.00 0.83 0.04 91 1011.8
20260905101041 78 55 2.0 3.0 0.00 0.83 0.04 91 1011.6
20260905100541 78 77 0.0 2.0 0.00 0.83 0.04 91 1011.5
20260905100107 78 0 0.0 1.0 0.00 0.83 0.04 92 1011.6
20260905095542 78 0 0.0 2.0 0.00 0.83 0.04 92 1011.6
20260905095040 78 0 0.0 3.0 0.00 0.83 0.04 92 1011.5
20260905094557 78 0 0.0 3.0 0.00 0.83 0.04 92 1011.5
20260905094041 78 0 0.0 4.0 0.00 0.83 0.04 92 1011.4
20260905093541 78 117 1.0 4.0 0.00 0.83 0.04 92 1011.5
20260905093105 78 123 2.0 4.0 0.00 0.83 0.04 92 1011.4
20260905092544 78 101 1.0 3.0 0.00 0.83 0.04 92 1011.4
20260905092041 78 0 0.0 3.0 0.00 0.83 0.04 92 1011.4
20260905091619 78 0 0.0 6.0 0.00 0.83 0.04 92 1011.4
20260905091040 78 122 1.0 6.0 0.00 0.83 0.04 92 1011.5
20260905090540 78 98 2.0 4.0 0.00 0.83 0.04 92 1011.5
20260905090104 78 116 1.0 7.0 0.00 0.83 0.04 93 1011.4
20260905085538 78 109 2.0 7.0 0.00 0.83 0.04 92 1011.5
20260905085040 78 90 4.0 7.0 0.00 0.83 0.04 92 1011.6
20260905084612 78 103 0.0 4.0 0.00 0.83 0.04 92 1011.7
20260905084042 78 0 1.0 4.0 0.00 0.83 0.04 91 1011.8
20260905083543 78 184 1.0 3.0 0.00 0.83 0.04 92 1011.9
20260905083103 78 160 0.0 3.0 0.00 0.83 0.04 92 1012.0
20260905082541 78 0 0.0 5.0 0.00 0.83 0.04 92 1012.1
20260905082041 78 0 1.0 5.0 0.00 0.83 0.04 92 1012.3
20260905081605 78 173 2.0 7.0 0.00 0.83 0.04 92 1012.2
20260905081041 78 0 3.0 7.0 0.00 0.83 0.04 92 1012.5
20260905080541 78 178 2.0 7.0 0.00 0.83 0.04 92 1012.5
20260905075541 78 195 3.0 6.0 0.00 0.83 0.04 93 1012.6
20260905075040 78 169 2.0 6.0 0.00 0.83 0.04 94 1012.8
20260905074628 77 176 3.0 6.0 0.00 0.83 0.04 94 1012.8
20260905074043 77 167 2.0 5.0 0.00 0.83 0.04 95 1012.8
20260905073541 77 175 1.0 5.0 0.00 0.83 0.04 96 1012.8
20260905073102 77 174 2.0 5.0 0.00 0.83 0.04 96 1012.9
20260905072540 77 197 2.0 5.0 0.00 0.83 0.04 96 1013.2
20260905072039 77 200 0.0 3.0 0.01 0.83 0.04 97 1013.1
20260905071600 77 0 0.0 3.0 0.01 0.83 0.04 97 1013.2
20260905071037 77 192 1.0 5.0 0.01 0.83 0.04 97 1013.2
20260905070540 77 0 1.0 5.0 0.02 0.83 0.04 97 1013.3
20260905070109 77 0 0.0 2.0 0.04 0.83 0.04 97 1013.2
20260905065542 77 0 0.0 3.0 0.09 0.83 0.04 97 1013.2
20260905065039 77 0 0.0 4.0 0.42 0.83 0.04 97 1013.2
20260905064039 77 0 0.0 3.0 0.81 0.83 0.04 97 1013.4
20260905063541 77 0 0.0 3.0 0.83 0.83 0.04 97 1013.6
20260905063105 78 0 1.0 5.0 0.83 0.83 0.04 97 1013.6
20260905062540 78 0 2.0 7.0 0.83 0.83 0.04 97 1013.8
20260905062041 78 168 4.0 7.0 0.82 0.82 0.03 97 1014.2
20260905061617 78 181 2.0 8.0 0.82 0.82 0.03 97 1014.5
20260905061044 78 128 4.0 8.0 0.82 0.82 0.03 97 1014.6
20260905060540 78 142 1.0 7.0 0.81 0.81 0.02 97 1014.5
20260905060107 78 80 3.0 23.0 0.79 0.79 0.00 96 1014.8
20260905055543 78 0 6.0 24.0 0.73 0.73 0.73 94 1015.1
20260905055040 78 50 9.0 30.0 0.36 0.36 0.36 92 1016.0
20260905054604 81 86 13.0 30.0 0.09 0.09 0.09 92 1015.5
20260905054040 84 116 7.0 17.0 0.02 0.02 0.02 94 1014.7
20260905053541 84 140 4.0 10.0 0.00 0.00 0.00 94 1014.4
20260905053059 84 131 3.0 10.0 0.00 0.00 0.00 94 1014.4
20260905052540 84 112 3.0 10.0 0.00 0.00 0.00 94 1014.5
20260905052043 84 124 2.0 11.0 0.00 0.00 0.00 94 1014.4
20260905051606 84 121 5.0 11.0 0.00 0.00 0.00 94 1014.4
20260905051040 84 132 4.0 11.0 0.00 0.00 0.00 93 1014.2
20260905050540 84 107 5.0 11.0 0.00 0.00 0.00 93 1014.2
20260905045540 84 101 5.0 10.0 0.00 0.00 0.00 93 1014.1
20260905045102 84 146 4.0 10.0 0.00 0.00 0.00 93 1014.1
20260905044557 84 73 4.0 11.0 0.00 0.00 0.00 93 1014.0
20260905044043 85 86 6.0 11.0 0.00 0.00 0.00 93 1014.0
20260905043540 85 113 4.0 11.0 0.00 0.00 0.00 93 1014.0
20260905043102 85 101 3.0 9.0 0.00 0.00 0.00 93 1014.0
20260905042541 85 62 3.0 9.0 0.00 0.00 0.00 92 1014.1
20260905042040 85 96 4.0 8.0 0.00 0.00 0.00 92 1014.0
20260905041605 85 74 3.0 9.0 0.00 0.00 0.00 92 1014.0
20260905041040 85 38 4.0 10.0 0.00 0.00 0.00 91 1013.9
20260905040540 85 67 4.0 10.0 0.00 0.00 0.00 92 1013.9
20260905040106 85 61 4.0 9.0 0.00 0.00 0.00 92 1013.9
20260905035540 85 59 4.0 9.0 0.00 0.00 0.00 92 1013.9
20260905035040 85 12 4.0 9.0 0.00 0.00 0.00 91 1013.8
20260905034600 86 79 3.0 10.0 0.00 0.00 0.00 91 1013.7
20260905034041 86 75 5.0 10.0 0.00 0.00 0.00 91 1013.7
20260905033540 86 40 3.0 10.0 0.00 0.00 0.00 90 1013.6
20260905033102 86 65 5.0 10.0 0.00 0.00 0.00 90 1013.5
20260905032541 86 89 4.0 10.0 0.00 0.00 0.00 89 1013.5
20260905032040 86 68 2.0 10.0 0.00 0.00 0.00 88 1013.5
20260905031603 87 98 4.0 10.0 0.00 0.00 0.00 88 1013.4
20260905031040 87 68 3.0 9.0 0.00 0.00 0.00 87 1013.3
20260905030540 87 35 4.0 10.0 0.00 0.00 0.00 86 1013.2
20260905030101 87 107 3.0 10.0 0.00 0.00 0.00 85 1013.2
20260905025540 87 61 4.0 10.0 0.00 0.00 0.00 85 1013.2
20260905025043 87 34 5.0 10.0 0.00 0.00 0.00 84 1013.1
20260905024600 88 84 4.0 10.0 0.00 0.00 0.00 84 1013.0
20260905024040 88 135 3.0 10.0 0.00 0.00 0.00 84 1013.0
20260905023541 88 119 2.0 10.0 0.00 0.00 0.00 83 1012.7
20260905023100 88 93 3.0 11.0 0.00 0.00 0.00 83 1012.8
20260905022540 88 76 5.0 11.0 0.00 0.00 0.00 83 1012.7
20260905022040 88 36 4.0 10.0 0.00 0.00 0.00 82 1012.7
20260905021603 89 61 4.0 11.0 0.00 0.00 0.00 82 1012.5
20260905021043 89 60 5.0 11.0 0.00 0.00 0.00 82 1012.4
20260905020540 89 99 5.0 11.0 0.00 0.00 0.00 82 1012.3
20260905015542 89 74 3.0 9.0 0.00 0.00 0.00 81 1012.2
20260905015038 90 32 3.0 10.0 0.00 0.00 0.00 81 1012.1
20260905014559 90 78 3.0 10.0 0.00 0.00 0.00 81 1012.0
20260905014042 90 49 3.0 10.0 0.00 0.00 0.00 81 1011.9
20260905013541 90 54 5.0 10.0 0.00 0.00 0.00 81 1011.9
20260905013104 90 55 4.0 10.0 0.00 0.00 0.00 81 1011.9